When you browse on this site, cookies collect data to enhance your experience and personalize the content and advertising you see.
Visit our Privacy Policy to learn more. By continuing to use the site, you agree to this use of cookies and data.
  • En España
  • Lista de países
  • Para 7 días
  • Temperatura del agua
  • El tiempo en el mapa
  • Informadores
  • user-avatar
    Iniciar sesión

    Tiempo cada hora Velikaya Pisarevka

    Hoy, 3 Junio, Miércoles

    Tiempo Temperatura Precipitaciones Viento Presión Humedad
    00:00 +11°C° 0 mm 1 mps 744 mmHg 86%
    01:00 +11°C° 0 mm 1 mps 744 mmHg 87%
    02:00 +11°C° 0 mm 1 mps 744 mmHg 90%
    03:00 +11°C° 0 mm 1 mps 744 mmHg 90%
    04:00 +11°C° 0 mm 1 mps 744 mmHg 89%
    05:00 +12°C° 0 mm 1 mps 744 mmHg 89%
    06:00 +13°C° 0 mm 1 mps 744 mmHg 83%
    07:00 +14°C° 0 mm 0 mps 744 mmHg 78%
    08:00 +16°C° 0 mm 0 mps 744 mmHg 72%
    09:00 +18°C° 0 mm 1 mps 744 mmHg 68%
    10:00 +19°C° 0 mm 1 mps 744 mmHg 64%
    11:00 +20°C° 0 mm 1 mps 744 mmHg 60%
    12:00 +20°C° 0.2 mm 1 mps 743 mmHg 60%
    13:00 +20°C° 0.2 mm 1 mps 743 mmHg 60%
    14:00 +20°C° 0.2 mm 2 mps 743 mmHg 60%
    15:00 +19°C° 0.2 mm 2 mps 743 mmHg 64%
    16:00 +19°C° 0.2 mm 2 mps 743 mmHg 67%
    17:00 +19°C° 0.2 mm 2 mps 742 mmHg 70%
    18:00 +17°C° 0.4 mm 2 mps 742 mmHg 76%
    19:00 +16°C° 0.4 mm 1 mps 742 mmHg 81%
    20:00 +14°C° 0.4 mm 1 mps 743 mmHg 86%
    21:00 +14°C° 0.2 mm 1 mps 742 mmHg 87%
    22:00 +14°C° 0.2 mm 1 mps 742 mmHg 88%
    23:00 +13°C° 0.2 mm 1 mps 742 mmHg 89%

    Mañana, 4 Junio, Jueves

    Tiempo Temperatura Precipitaciones Viento Presión Humedad
    00:00 +13°C° 0.7 mm 1 mps 742 mmHg 90%
    01:00 +13°C° 0.7 mm 1 mps 742 mmHg 92%
    02:00 +13°C° 0.7 mm 1 mps 742 mmHg 94%
    03:00 +13°C° 1.1 mm 2 mps 742 mmHg 94%
    04:00 +12°C° 1.1 mm 3 mps 742 mmHg 95%
    05:00 +12°C° 1.1 mm 4 mps 743 mmHg 96%
    06:00 +12°C° 0.3 mm 4 mps 743 mmHg 94%
    07:00 +12°C° 0.3 mm 4 mps 743 mmHg 93%
    08:00 +12°C° 0.3 mm 4 mps 744 mmHg 91%
    09:00 +14°C° 0.2 mm 4 mps 744 mmHg 86%
    10:00 +15°C° 0.2 mm 5 mps 744 mmHg 81%
    11:00 +16°C° 0.2 mm 5 mps 744 mmHg 76%
    12:00 +17°C° 0.3 mm 5 mps 744 mmHg 74%
    13:00 +19°C° 0.3 mm 5 mps 744 mmHg 71%
    14:00 +19°C° 0.3 mm 5 mps 744 mmHg 69%
    15:00 +19°C° 0.2 mm 5 mps 744 mmHg 71%
    16:00 +19°C° 0.2 mm 4 mps 744 mmHg 73%
    17:00 +19°C° 0.2 mm 4 mps 744 mmHg 75%
    18:00 +18°C° 0.3 mm 4 mps 745 mmHg 79%
    19:00 +15°C° 0.3 mm 4 mps 745 mmHg 83%
    20:00 +14°C° 0.3 mm 4 mps 745 mmHg 87%
    21:00 +13°C° 0 mm 4 mps 745 mmHg 88%
    22:00 +13°C° 0 mm 4 mps 745 mmHg 88%
    23:00 +12°C° 0 mm 4 mps 746 mmHg 89%

    Pasado mañana, 5 Junio, Viernes

    Tiempo Temperatura Precipitaciones Viento Presión Humedad
    00:00 +12°C° 0 mm 4 mps 746 mmHg 90%
    01:00 +11°C° 0 mm 4 mps 746 mmHg 91%
    02:00 +11°C° 0 mm 4 mps 746 mmHg 91%
    03:00 +11°C° 0 mm 4 mps 746 mmHg 90%
    04:00 +10°C° 0 mm 5 mps 746 mmHg 89%
    05:00 +10°C° 0 mm 5 mps 746 mmHg 87%
    06:00 +13°C° 0.1 mm 5 mps 746 mmHg 86%
    07:00 +14°C° 0.1 mm 6 mps 746 mmHg 85%
    08:00 +15°C° 0.1 mm 6 mps 747 mmHg 83%
    09:00 +16°C° 0.7 mm 7 mps 747 mmHg 83%
    10:00 +16°C° 0.7 mm 7 mps 747 mmHg 83%
    11:00 +17°C° 0.7 mm 8 mps 747 mmHg 83%
    12:00 +16°C° 0.4 mm 7 mps 747 mmHg 86%
    13:00 +16°C° 0.4 mm 6 mps 746 mmHg 89%
    14:00 +15°C° 0.4 mm 5 mps 746 mmHg 92%
    15:00 +16°C° 0.7 mm 5 mps 746 mmHg 91%
    16:00 +17°C° 0.7 mm 5 mps 746 mmHg 90%
    17:00 +19°C° 0.7 mm 4 mps 746 mmHg 88%
    18:00 +19°C° 1.3 mm 4 mps 746 mmHg 88%
    19:00 +19°C° 1.3 mm 4 mps 746 mmHg 88%
    20:00 +18°C° 1.3 mm 4 mps 746 mmHg 88%
    21:00 +18°C° 0.7 mm 4 mps 746 mmHg 88%
    22:00 +17°C° 0.7 mm 5 mps 747 mmHg 89%
    23:00 +16°C° 0.7 mm 5 mps 747 mmHg 89%

    6 Junio, Sábado

    Tiempo Temperatura Precipitaciones Viento Presión Humedad
    00:00 +17°C° 0 mm 4 mps 747 mmHg 90%
    01:00 +15°C° 0 mm 4 mps 747 mmHg 91%
    02:00 +14°C° 0 mm 4 mps 748 mmHg 92%
    03:00 +14°C° 0 mm 4 mps 748 mmHg 92%
    04:00 +14°C° 0 mm 4 mps 748 mmHg 92%
    05:00 +14°C° 0 mm 4 mps 748 mmHg 93%
    06:00 +15°C° 0 mm 5 mps 748 mmHg 89%
    07:00 +17°C° 0 mm 5 mps 749 mmHg 85%
    08:00 +19°C° 0 mm 6 mps 749 mmHg 81%
    09:00 +21°C° 0 mm 6 mps 749 mmHg 77%
    10:00 +22°C° 0 mm 6 mps 750 mmHg 74%
    11:00 +23°C° 0 mm 6 mps 750 mmHg 70%
    12:00 +24°C° 0 mm 6 mps 750 mmHg 68%
    13:00 +24°C° 0 mm 6 mps 750 mmHg 66%
    14:00 +26°C° 0 mm 6 mps 750 mmHg 64%
    15:00 +26°C° 0 mm 5 mps 750 mmHg 68%
    16:00 +26°C° 0 mm 4 mps 750 mmHg 72%
    17:00 +25°C° 0 mm 3 mps 750 mmHg 76%
    18:00 +24°C° 0 mm 3 mps 750 mmHg 79%
    19:00 +21°C° 0 mm 3 mps 750 mmHg 81%
    20:00 +20°C° 0 mm 4 mps 751 mmHg 84%
    21:00 +19°C° 0 mm 4 mps 751 mmHg 84%
    22:00 +18°C° 0 mm 3 mps 751 mmHg 83%
    23:00 +17°C° 0 mm 3 mps 752 mmHg 82%

    7 Junio, Domingo

    Tiempo Temperatura Precipitaciones Viento Presión Humedad
    00:00 +17°C° 0 mm 3 mps 752 mmHg 84%
    01:00 +16°C° 0 mm 3 mps 752 mmHg 85%
    02:00 +14°C° 0 mm 3 mps 752 mmHg 86%
    03:00 +14°C° 0 mm 3 mps 752 mmHg 87%
    04:00 +16°C° 0 mm 3 mps 752 mmHg 87%
    05:00 +16°C° 0 mm 3 mps 752 mmHg 88%
    06:00 +18°C° 0 mm 3 mps 753 mmHg 85%
    07:00 +20°C° 0 mm 4 mps 753 mmHg 83%
    08:00 +21°C° 0 mm 4 mps 753 mmHg 80%
    09:00 +23°C° 0 mm 5 mps 753 mmHg 76%
    10:00 +25°C° 0 mm 5 mps 753 mmHg 72%
    11:00 +26°C° 0 mm 5 mps 754 mmHg 68%
    12:00 +27°C° 0 mm 5 mps 753 mmHg 67%
    13:00 +27°C° 0 mm 4 mps 753 mmHg 66%
    14:00 +28°C° 0 mm 4 mps 753 mmHg 64%
    15:00 +27°C° 0 mm 4 mps 753 mmHg 68%
    16:00 +27°C° 0 mm 3 mps 753 mmHg 72%
    17:00 +27°C° 0 mm 3 mps 752 mmHg 76%
    18:00 +25°C° 0 mm 3 mps 752 mmHg 79%
    19:00 +24°C° 0 mm 3 mps 752 mmHg 82%
    20:00 +21°C° 0 mm 3 mps 752 mmHg 85%
    21:00 +20°C° 0 mm 3 mps 752 mmHg 86%
    22:00 +20°C° 0 mm 3 mps 753 mmHg 86%
    23:00 +19°C° 0 mm 3 mps 753 mmHg 87%

    8 Junio, Lunes

    Tiempo Temperatura Precipitaciones Viento Presión Humedad
    00:00 +19°C° 0 mm 3 mps 753 mmHg 87%
    01:00 +18°C° 0 mm 3 mps 753 mmHg 88%
    02:00 +18°C° 0 mm 3 mps 753 mmHg 88%
    03:00 +18°C° 0 mm 3 mps 753 mmHg 88%
    04:00 +18°C° 0 mm 3 mps 753 mmHg 89%
    05:00 +18°C° 0 mm 3 mps 753 mmHg 89%
    06:00 +20°C° 0 mm 3 mps 753 mmHg 85%
    07:00 +22°C° 0 mm 4 mps 753 mmHg 81%
    08:00 +23°C° 0 mm 4 mps 753 mmHg 77%
    09:00 +26°C° 0 mm 4 mps 753 mmHg 73%
    10:00 +27°C° 0 mm 4 mps 753 mmHg 69%
    11:00 +28°C° 0 mm 5 mps 753 mmHg 65%
    12:00 +28°C° 0 mm 4 mps 753 mmHg 64%
    13:00 +28°C° 0 mm 4 mps 752 mmHg 63%
    14:00 +29°C° 0 mm 4 mps 752 mmHg 62%
    15:00 +28°C° 0 mm 4 mps 752 mmHg 65%
    16:00 +28°C° 0 mm 3 mps 752 mmHg 69%
    17:00 +28°C° 0 mm 3 mps 751 mmHg 73%
    18:00 +26°C° 0 mm 3 mps 751 mmHg 76%
    19:00 +24°C° 0 mm 3 mps 751 mmHg 79%
    20:00 +22°C° 0 mm 3 mps 751 mmHg 82%
    21:00 +21°C° 0 mm 3 mps 752 mmHg 84%
    22:00 +21°C° 0 mm 3 mps 752 mmHg 86%
    23:00 +20°C° 0 mm 3 mps 752 mmHg 87%
    Mostrar más